Conroe, TX

1:31 AM CDT on April 28, 2017 (GMT -0500)
Montgomery County

Weather History for KCXO - December, 2012

Change the Weather History Date:

Saturday, December 1, 2012

  Actual Average Record
Temperature  
Mean Temperature 70 °F -  
Max Temperature 81 °F 64 °F 81 °F (2012)
Min Temperature 59 °F 43 °F 27 °F (2010)
Cooling Degree Days 5    
Growing Degree Days 20 (Base 50)    
Moisture  
Dew Point 63 °F    
Average Humidity 88    
Maximum Humidity 100    
Minimum Humidity 52    
Precipitation  
Precipitation 0.08 in - - ()
Sea Level Pressure  
Sea Level Pressure 30.12 in    
Wind  
Wind Speed 3 mph (SE)    
Max Wind Speed 13 mph    
Max Gust Speed 20 mph    
Visibility 8 miles    
Events Rain    
Averages and records for this station are not official NWS values.
T = Trace of Precipitation, MM = Missing Value Source: NWS Daily Summary

Daily Weather History Graph

Daily Weather History Graph

Search for Another Location

Airport or City:

Trip Planner

Search our weather history database for the weather conditions in past years. The results will help you decide how hot, cold, wet, or windy it might be!

Date:

Astronomy

Dec. 01, 2012 Rise Set
Actual Time 7:01 AM CST 5:20 PM CST
Civil Twilight 6:34 AM CST 5:46 PM CST
Nautical Twilight 6:05 AM CST 6:16 PM CST
Astronomical Twilight 5:36 AM CST 6:45 PM CST
Moon 8:07 PM CST (12/1) 9:17 AM CST (12/1)
Length of Visible Light 11h 11m
Length of Day
10h 19m
Waning Gibbous, 91% of the Moon is Illuminated
Dec 1
Waning Gibbous
Dec 6
Last Quarter
Dec 13
New
Dec 19
First Quarter
Dec 28
Full

Hourly Weather History & Observations

Time (CST) Temp. Heat Index Dew Point Humidity Pressure Visibility Wind Dir Wind Speed Gust Speed Precip Events Conditions
12:14 AM 64.4 °F - 62.6 °F 94% 30.14 in 10.0 mi ESE 3.5 mph - N/A   Overcast
12:50 AM 62.6 °F - 62.6 °F 100% 30.14 in 10.0 mi Calm Calm - N/A   Mostly Cloudy
12:53 AM 64.0 °F - 62.1 °F 93% 30.13 in 10.0 mi Calm Calm - N/A   Mostly Cloudy
1:40 AM 62.6 °F - 60.8 °F 94% 30.14 in 10.0 mi Calm Calm - N/A   Scattered Clouds
1:53 AM 62.1 °F - 61.0 °F 96% 30.13 in 9.0 mi Calm Calm - N/A   Mostly Cloudy
2:53 AM 63.0 °F - 63.0 °F 100% 30.12 in 10.0 mi ESE 3.5 mph - N/A   Overcast
3:07 AM 64.4 °F - 62.6 °F 94% 30.13 in 9.0 mi ESE 3.5 mph - N/A   Overcast
3:53 AM 64.0 °F - 63.0 °F 96% 30.12 in 9.0 mi Calm Calm - 0.00 in Rain Light Rain
4:53 AM 63.0 °F - 62.1 °F 97% 30.13 in 8.0 mi Calm Calm - 0.00 in   Overcast
5:21 AM 62.6 °F - 62.6 °F 100% 30.13 in 5.0 mi Calm Calm - 0.00 in   Mostly Cloudy
5:38 AM 60.8 °F - 60.8 °F 100% 30.13 in 2.0 mi Calm Calm - 0.00 in   Scattered Clouds
5:46 AM 60.8 °F - 60.8 °F 100% 30.13 in 1.5 mi Calm Calm - 0.00 in   Scattered Clouds
5:51 AM 60.8 °F - 60.8 °F 100% 30.13 in 2.0 mi Calm Calm - 0.00 in   Mostly Cloudy
6:02 AM 60.8 °F - 60.8 °F 100% 30.14 in 3.0 mi Calm Calm - N/A   Mostly Cloudy
6:31 AM 60.8 °F - 59.0 °F 94% 30.14 in 1.8 mi Calm Calm - N/A   Mostly Cloudy
6:48 AM 59.0 °F - 59.0 °F 100% 30.14 in 4.0 mi Calm Calm - N/A   Mostly Cloudy
6:53 AM 59.0 °F - 59.0 °F 100% 30.14 in 4.0 mi Calm Calm - N/A   Mostly Cloudy
7:53 AM 62.1 °F - 62.1 °F 100% 30.15 in 5.0 mi Calm Calm - N/A   Mostly Cloudy
8:53 AM 66.9 °F - 64.0 °F 90% 30.16 in 9.0 mi SE 3.5 mph - N/A   Partly Cloudy
9:53 AM 73.9 °F - 66.0 °F 76% 30.17 in 10.0 mi South 11.5 mph - 0.01 in   Clear
10:53 AM 78.1 °F - 64.9 °F 64% 30.16 in 10.0 mi SSE 9.2 mph - N/A   Mostly Cloudy
11:33 AM 78.8 °F - 64.4 °F 61% 30.16 in 10.0 mi South 9.2 mph - N/A   Mostly Cloudy
11:53 AM 79.0 °F - 64.9 °F 62% 30.13 in 10.0 mi South 11.5 mph - N/A   Scattered Clouds
12:53 PM 80.1 °F 81.5 °F 63.0 °F 56% 30.10 in 10.0 mi South 12.7 mph - N/A   Mostly Cloudy
2:53 PM 81.0 °F 81.9 °F 62.1 °F 52% 30.05 in 10.0 mi SE 12.7 mph - N/A   Mostly Cloudy
3:53 PM 78.1 °F - 63.0 °F 60% 30.05 in 10.0 mi SSE 6.9 mph - N/A   Overcast
4:53 PM 75.9 °F - 63.0 °F 64% 30.06 in 10.0 mi SE 10.4 mph 19.6 mph N/A   Mostly Cloudy
5:53 PM 73.0 °F - 64.0 °F 73% 30.08 in 10.0 mi SE 9.2 mph - N/A   Mostly Cloudy
6:53 PM 69.1 °F - 66.0 °F 90% 30.09 in 10.0 mi SE 4.6 mph - 0.06 in   Mostly Cloudy
7:53 PM 66.0 °F - 64.0 °F 93% 30.11 in 10.0 mi SE 4.6 mph - N/A   Clear
8:53 PM 66.9 °F - 64.0 °F 90% 30.12 in 10.0 mi SE 6.9 mph - N/A   Scattered Clouds
9:10 PM 66.2 °F - 64.4 °F 94% 30.12 in 10.0 mi SE 5.8 mph - N/A   Mostly Cloudy
9:53 PM 66.9 °F - 64.9 °F 93% 30.12 in 10.0 mi SE 6.9 mph - N/A   Mostly Cloudy
10:02 PM 66.2 °F - 64.4 °F 94% 30.12 in 10.0 mi SE 5.8 mph - N/A   Scattered Clouds
10:53 PM 64.9 °F - 64.0 °F 97% 30.12 in 7.0 mi SE 5.8 mph - 0.01 in   Clear
11:53 PM 64.9 °F - 64.0 °F 97% 30.12 in 5.0 mi SSE 4.6 mph - N/A   Mostly Cloudy